iso_date,epoch_date,Year,Hour,Min,DOY,POS_DOY,Lat,Lon,BP,Ts,Ta,has_bp,has_ts,has_ta,BuoyID,Buoy_Type,Buoy_Owner,Logistics,Hemisphere
2012-05-15T00:00:00Z,1337040000,2012,0,0,136.0,136.0,76.7066,-105.5345,1031.13,-999.00,-8.32,yes,no,yes,300025010216150,unknown,unknown,unknown,North
2012-05-15T01:00:28Z,1337043629,2012,1,0,136.042,136.042,76.7068,-105.5343,1031.19,-999.00,-9.03,yes,no,yes,300025010216150,unknown,unknown,unknown,North
2012-05-15T01:59:31Z,1337047171,2012,2,0,136.083,136.083,76.7067,-105.5341,1031.04,-999.00,-9.36,yes,no,yes,300025010216150,unknown,unknown,unknown,North
2012-05-15T03:00:00Z,1337050800,2012,3,0,136.125,136.125,76.7067,-105.5345,1030.65,-999.00,-9.78,yes,no,yes,300025010216150,unknown,unknown,unknown,North
2012-05-15T04:00:28Z,1337054429,2012,4,0,136.167,136.167,76.7067,-105.5346,1030.44,-999.00,-10.12,yes,no,yes,300025010216150,unknown,unknown,unknown,North
2012-05-15T04:59:31Z,1337057971,2012,5,0,136.208,136.208,76.7067,-105.5347,1030.15,-999.00,-10.96,yes,no,yes,300025010216150,unknown,unknown,unknown,North
2012-05-15T06:00:00Z,1337061600,2012,6,0,136.25,136.25,76.7069,-105.5346,1029.87,-999.00,-11.14,yes,no,yes,300025010216150,unknown,unknown,unknown,North
2012-05-15T07:00:28Z,1337065229,2012,7,0,136.292,136.292,76.7067,-105.5345,1029.9,-999.00,-11.22,yes,no,yes,300025010216150,unknown,unknown,unknown,North
2012-05-15T07:59:31Z,1337068771,2012,8,0,136.333,136.333,76.7067,-105.5344,1029.81,-999.00,-12.33,yes,no,yes,300025010216150,unknown,unknown,unknown,North
2012-05-15T09:00:00Z,1337072400,2012,9,0,136.375,136.375,76.7066,-105.5348,1029.6,-999.00,-12.01,yes,no,yes,300025010216150,unknown,unknown,unknown,North
2012-05-15T10:00:28Z,1337076029,2012,10,0,136.417,136.417,76.7067,-105.5345,1029.57,-999.00,-12.66,yes,no,yes,300025010216150,unknown,unknown,unknown,North
2012-05-15T10:59:31Z,1337079571,2012,11,0,136.458,136.458,76.7067,-105.5345,1029.46,-999.00,-12.49,yes,no,yes,300025010216150,unknown,unknown,unknown,North
2012-05-15T12:00:00Z,1337083200,2012,12,0,136.5,136.5,76.7067,-105.5344,1029.31,-999.00,-11.86,yes,no,yes,300025010216150,unknown,unknown,unknown,North
2012-05-15T13:00:28Z,1337086829,2012,13,0,136.542,136.542,76.7067,-105.5345,1029.03,-999.00,-11.35,yes,no,yes,300025010216150,unknown,unknown,unknown,North
2012-05-15T13:59:31Z,1337090371,2012,14,0,136.583,136.583,76.7067,-105.5343,1029.03,-999.00,-11.73,yes,no,yes,300025010216150,unknown,unknown,unknown,North
2012-05-15T15:00:00Z,1337094000,2012,15,0,136.625,136.625,76.7067,-105.5343,1028.99,-999.00,-11.32,yes,no,yes,300025010216150,unknown,unknown,unknown,North
2012-05-15T16:00:28Z,1337097629,2012,16,0,136.667,136.667,76.7068,-105.5347,1028.74,-999.00,-10.59,yes,no,yes,300025010216150,unknown,unknown,unknown,North
2012-05-15T16:59:31Z,1337101171,2012,17,0,136.708,136.708,76.7067,-105.534,1028.4,-999.00,-10.46,yes,no,yes,300025010216150,unknown,unknown,unknown,North
2012-05-15T18:00:00Z,1337104800,2012,18,0,136.75,136.75,76.7066,-105.5346,1028.1,-999.00,-9.68,yes,no,yes,300025010216150,unknown,unknown,unknown,North
2012-05-15T19:00:28Z,1337108429,2012,19,0,136.792,136.792,76.7067,-105.5345,1028.28,-999.00,-8.89,yes,no,yes,300025010216150,unknown,unknown,unknown,North
2012-05-15T19:59:31Z,1337111971,2012,20,0,136.833,136.833,76.7067,-105.5345,1028.17,-999.00,-8.26,yes,no,yes,300025010216150,unknown,unknown,unknown,North
2012-05-15T21:00:00Z,1337115600,2012,21,0,136.875,136.875,76.7067,-105.5347,1028.07,-999.00,-7.91,yes,no,yes,300025010216150,unknown,unknown,unknown,North
2012-05-15T22:00:28Z,1337119229,2012,22,0,136.917,136.917,76.7067,-105.5346,1027.82,-999.00,-7.39,yes,no,yes,300025010216150,unknown,unknown,unknown,North
2012-05-15T22:59:31Z,1337122771,2012,23,0,136.958,136.958,76.7067,-105.5345,1027.82,-999.00,-7.15,yes,no,yes,300025010216150,unknown,unknown,unknown,North
2012-05-16T00:00:00Z,1337126400,2012,0,0,137.0,137.0,76.7067,-105.5344,1027.54,-999.00,-7.27,yes,no,yes,300025010216150,unknown,unknown,unknown,North
2012-05-16T01:00:28Z,1337130029,2012,1,0,137.042,137.042,76.7068,-105.534,1027.68,-999.00,-7.75,yes,no,yes,300025010216150,unknown,unknown,unknown,North
2012-05-16T01:59:31Z,1337133571,2012,2,0,137.083,137.083,76.7067,-105.5344,1027.26,-999.00,-8.44,yes,no,yes,300025010216150,unknown,unknown,unknown,North
2012-05-16T03:00:00Z,1337137200,2012,3,0,137.125,137.125,76.7067,-105.5343,1026.92,-999.00,-9.37,yes,no,yes,300025010216150,unknown,unknown,unknown,North
2012-05-16T04:00:28Z,1337140829,2012,4,0,137.167,137.167,76.7067,-105.5346,1026.77,-999.00,-10.52,yes,no,yes,300025010216150,unknown,unknown,unknown,North
2012-05-16T04:59:31Z,1337144371,2012,5,0,137.208,137.208,76.7067,-105.5347,1026.77,-999.00,-11.42,yes,no,yes,300025010216150,unknown,unknown,unknown,North
2012-05-16T06:00:00Z,1337148000,2012,6,0,137.25,137.25,76.7067,-105.5343,1026.56,-999.00,-12.26,yes,no,yes,300025010216150,unknown,unknown,unknown,North
2012-05-16T07:00:28Z,1337151629,2012,7,0,137.292,137.292,76.7066,-105.5344,1026.43,-999.00,-13.28,yes,no,yes,300025010216150,unknown,unknown,unknown,North
2012-05-16T07:59:31Z,1337155171,2012,8,0,137.333,137.333,76.7066,-105.5349,1026.28,-999.00,-13.46,yes,no,yes,300025010216150,unknown,unknown,unknown,North
2012-05-16T09:00:00Z,1337158800,2012,9,0,137.375,137.375,76.7069,-105.5351,1026.28,-999.00,-13.78,yes,no,yes,300025010216150,unknown,unknown,unknown,North
2012-05-16T10:00:28Z,1337162429,2012,10,0,137.417,137.417,76.7067,-105.5344,1026.07,-999.00,-12.06,yes,no,yes,300025010216150,unknown,unknown,unknown,North
2012-05-16T10:59:31Z,1337165971,2012,11,0,137.458,137.458,76.7067,-105.5346,1026.16,-999.00,-12.12,yes,no,yes,300025010216150,unknown,unknown,unknown,North
2012-05-16T12:00:00Z,1337169600,2012,12,0,137.5,137.5,76.7066,-105.534,1025.96,-999.00,-11.81,yes,no,yes,300025010216150,unknown,unknown,unknown,North
2012-05-16T13:00:28Z,1337173229,2012,13,0,137.542,137.542,76.7067,-105.5344,1025.96,-999.00,-11.29,yes,no,yes,300025010216150,unknown,unknown,unknown,North
2012-05-16T13:59:31Z,1337176771,2012,14,0,137.583,137.583,76.7067,-105.5342,1025.92,-999.00,-10.51,yes,no,yes,300025010216150,unknown,unknown,unknown,North
2012-05-16T15:00:00Z,1337180400,2012,15,0,137.625,137.625,76.7066,-105.5344,1025.64,-999.00,-9.56,yes,no,yes,300025010216150,unknown,unknown,unknown,North
2012-05-16T16:00:28Z,1337184029,2012,16,0,137.667,137.667,76.7067,-105.5347,1025.64,-999.00,-8.45,yes,no,yes,300025010216150,unknown,unknown,unknown,North
2012-05-16T16:59:31Z,1337187571,2012,17,0,137.708,137.708,76.7066,-105.5342,1025.64,-999.00,-8.06,yes,no,yes,300025010216150,unknown,unknown,unknown,North
2012-05-16T18:00:00Z,1337191200,2012,18,0,137.75,137.75,76.7067,-105.5348,1025.34,-999.00,-7.42,yes,no,yes,300025010216150,unknown,unknown,unknown,North
2012-05-16T19:00:28Z,1337194829,2012,19,0,137.792,137.792,76.7067,-105.5346,1025.29,-999.00,-7.25,yes,no,yes,300025010216150,unknown,unknown,unknown,North
2012-05-16T19:59:31Z,1337198371,2012,20,0,137.833,137.833,76.7067,-105.5344,1025.25,-999.00,-6.81,yes,no,yes,300025010216150,unknown,unknown,unknown,North
2012-05-16T21:00:00Z,1337202000,2012,21,0,137.875,137.875,76.7067,-105.5349,1025.42,-999.00,-6.5,yes,no,yes,300025010216150,unknown,unknown,unknown,North
2012-05-16T22:00:28Z,1337205629,2012,22,0,137.917,137.917,76.7067,-105.5344,1025.28,-999.00,-6.35,yes,no,yes,300025010216150,unknown,unknown,unknown,North
2012-05-16T22:59:31Z,1337209171,2012,23,0,137.958,137.958,76.7067,-105.5344,1025.32,-999.00,-6.52,yes,no,yes,300025010216150,unknown,unknown,unknown,North
2012-05-17T00:00:00Z,1337212800,2012,0,0,138.0,138.0,76.7067,-105.5347,1025.21,-999.00,-6.64,yes,no,yes,300025010216150,unknown,unknown,unknown,North
2012-05-17T01:00:28Z,1337216429,2012,1,0,138.042,138.042,76.7066,-105.5348,1025.28,-999.00,-7.16,yes,no,yes,300025010216150,unknown,unknown,unknown,North
2012-05-17T01:59:31Z,1337219971,2012,2,0,138.083,138.083,76.7066,-105.5336,1025.31,-999.00,-7.89,yes,no,yes,300025010216150,unknown,unknown,unknown,North
2012-05-17T03:00:00Z,1337223600,2012,3,0,138.125,138.125,76.7067,-105.5345,1025.29,-999.00,-9.03,yes,no,yes,300025010216150,unknown,unknown,unknown,North
2012-05-17T04:00:28Z,1337227229,2012,4,0,138.167,138.167,76.7068,-105.5349,1025.22,-999.00,-9.82,yes,no,yes,300025010216150,unknown,unknown,unknown,North
2012-05-17T04:59:31Z,1337230771,2012,5,0,138.208,138.208,76.7066,-105.534,1025.07,-999.00,-10.72,yes,no,yes,300025010216150,unknown,unknown,unknown,North
2012-05-17T06:00:00Z,1337234400,2012,6,0,138.25,138.25,76.7066,-105.5344,1025.08,-999.00,-11.51,yes,no,yes,300025010216150,unknown,unknown,unknown,North
2012-05-17T07:00:28Z,1337238029,2012,7,0,138.292,138.292,76.7067,-105.5345,1025.07,-999.00,-12.46,yes,no,yes,300025010216150,unknown,unknown,unknown,North
2012-05-17T07:59:31Z,1337241571,2012,8,0,138.333,138.333,76.7068,-105.5344,1025.27,-999.00,-13.34,yes,no,yes,300025010216150,unknown,unknown,unknown,North
2012-05-17T09:00:00Z,1337245200,2012,9,0,138.375,138.375,76.7067,-105.5343,1025.3,-999.00,-13.54,yes,no,yes,300025010216150,unknown,unknown,unknown,North
2012-05-17T10:00:28Z,1337248829,2012,10,0,138.417,138.417,76.7067,-105.5344,1025.37,-999.00,-13.8,yes,no,yes,300025010216150,unknown,unknown,unknown,North
2012-05-17T10:59:31Z,1337252371,2012,11,0,138.458,138.458,76.7066,-105.5344,1025.37,-999.00,-13.62,yes,no,yes,300025010216150,unknown,unknown,unknown,North
2012-05-17T12:00:00Z,1337256000,2012,12,0,138.5,138.5,76.7066,-105.5344,1025.05,-999.00,-13.16,yes,no,yes,300025010216150,unknown,unknown,unknown,North
2012-05-17T13:00:28Z,1337259629,2012,13,0,138.542,138.542,76.7067,-105.5347,1024.89,-999.00,-12.28,yes,no,yes,300025010216150,unknown,unknown,unknown,North
2012-05-17T13:59:31Z,1337263171,2012,14,0,138.583,138.583,76.7067,-105.5343,1024.56,-999.00,-11.51,yes,no,yes,300025010216150,unknown,unknown,unknown,North
2012-05-17T15:00:00Z,1337266800,2012,15,0,138.625,138.625,76.7067,-105.5345,1024.39,-999.00,-10.72,yes,no,yes,300025010216150,unknown,unknown,unknown,North
2012-05-17T16:00:28Z,1337270429,2012,16,0,138.667,138.667,76.7067,-105.5347,1024.16,-999.00,-10.01,yes,no,yes,300025010216150,unknown,unknown,unknown,North
2012-05-17T16:59:31Z,1337273971,2012,17,0,138.708,138.708,76.7067,-105.5344,1023.88,-999.00,-9.45,yes,no,yes,300025010216150,unknown,unknown,unknown,North
2012-05-17T18:00:00Z,1337277600,2012,18,0,138.75,138.75,76.7067,-105.5346,1023.8,-999.00,-9.0,yes,no,yes,300025010216150,unknown,unknown,unknown,North
2012-05-17T19:00:28Z,1337281229,2012,19,0,138.792,138.792,76.7067,-105.5345,1023.88,-999.00,-8.58,yes,no,yes,300025010216150,unknown,unknown,unknown,North
2012-05-17T19:59:31Z,1337284771,2012,20,0,138.833,138.833,76.7067,-105.5343,1023.88,-999.00,-8.32,yes,no,yes,300025010216150,unknown,unknown,unknown,North
2012-05-17T21:00:00Z,1337288400,2012,21,0,138.875,138.875,76.7067,-105.5346,1023.8,-999.00,-7.96,yes,no,yes,300025010216150,unknown,unknown,unknown,North
2012-05-17T22:00:28Z,1337292029,2012,22,0,138.917,138.917,76.7067,-105.5346,1023.51,-999.00,-7.68,yes,no,yes,300025010216150,unknown,unknown,unknown,North
2012-05-17T22:59:31Z,1337295571,2012,23,0,138.958,138.958,76.7066,-105.5344,1023.55,-999.00,-7.7,yes,no,yes,300025010216150,unknown,unknown,unknown,North
2012-05-18T00:00:00Z,1337299200,2012,0,0,139.0,139.0,76.7067,-105.5344,1023.13,-999.00,-7.96,yes,no,yes,300025010216150,unknown,unknown,unknown,North
2012-05-18T01:00:28Z,1337302829,2012,1,0,139.042,139.042,76.7068,-105.5344,1023.31,-999.00,-8.3,yes,no,yes,300025010216150,unknown,unknown,unknown,North
2012-05-18T01:59:31Z,1337306371,2012,2,0,139.083,139.083,76.7067,-105.5345,1023.24,-999.00,-8.78,yes,no,yes,300025010216150,unknown,unknown,unknown,North
2012-05-18T03:00:00Z,1337310000,2012,3,0,139.125,139.125,76.7067,-105.5346,1023.24,-999.00,-9.36,yes,no,yes,300025010216150,unknown,unknown,unknown,North
2012-05-18T04:00:28Z,1337313629,2012,4,0,139.167,139.167,76.7066,-105.5344,1022.96,-999.00,-10.48,yes,no,yes,300025010216150,unknown,unknown,unknown,North
2012-05-18T04:59:31Z,1337317171,2012,5,0,139.208,139.208,76.7066,-105.5348,1022.75,-999.00,-11.69,yes,no,yes,300025010216150,unknown,unknown,unknown,North
2012-05-18T06:00:00Z,1337320800,2012,6,0,139.25,139.25,76.7066,-105.5345,1022.59,-999.00,-12.67,yes,no,yes,300025010216150,unknown,unknown,unknown,North
2012-05-18T07:00:28Z,1337324429,2012,7,0,139.292,139.292,76.7067,-105.5345,1022.67,-999.00,-13.05,yes,no,yes,300025010216150,unknown,unknown,unknown,North
2012-05-18T07:59:31Z,1337327971,2012,8,0,139.333,139.333,76.7066,-105.5347,1022.62,-999.00,-13.76,yes,no,yes,300025010216150,unknown,unknown,unknown,North
2012-05-18T09:00:00Z,1337331600,2012,9,0,139.375,139.375,76.7066,-105.5346,1022.62,-999.00,-14.09,yes,no,yes,300025010216150,unknown,unknown,unknown,North
2012-05-18T10:00:28Z,1337335229,2012,10,0,139.417,139.417,76.7067,-105.5345,1022.4,-999.00,-13.94,yes,no,yes,300025010216150,unknown,unknown,unknown,North
2012-05-18T10:59:31Z,1337338771,2012,11,0,139.458,139.458,76.7067,-105.5345,1022.33,-999.00,-13.76,yes,no,yes,300025010216150,unknown,unknown,unknown,North
2012-05-18T12:00:00Z,1337342400,2012,12,0,139.5,139.5,76.7066,-105.5344,1022.26,-999.00,-13.71,yes,no,yes,300025010216150,unknown,unknown,unknown,North
2012-05-18T13:00:28Z,1337346029,2012,13,0,139.542,139.542,76.7068,-105.5348,1022.12,-999.00,-13.5,yes,no,yes,300025010216150,unknown,unknown,unknown,North
2012-05-18T13:59:31Z,1337349571,2012,14,0,139.583,139.583,76.7067,-105.5342,1021.87,-999.00,-12.84,yes,no,yes,300025010216150,unknown,unknown,unknown,North
2012-05-18T15:00:00Z,1337353200,2012,15,0,139.625,139.625,76.7066,-105.5344,1021.87,-999.00,-12.37,yes,no,yes,300025010216150,unknown,unknown,unknown,North
2012-05-18T16:00:28Z,1337356829,2012,16,0,139.667,139.667,76.7065,-105.534,1021.52,-999.00,-11.79,yes,no,yes,300025010216150,unknown,unknown,unknown,North
2012-05-18T16:59:31Z,1337360371,2012,17,0,139.708,139.708,76.7066,-105.5343,1021.27,-999.00,-11.27,yes,no,yes,300025010216150,unknown,unknown,unknown,North
2012-05-18T18:00:00Z,1337364000,2012,18,0,139.75,139.75,76.7066,-105.5345,1021.26,-999.00,-10.79,yes,no,yes,300025010216150,unknown,unknown,unknown,North
2012-05-18T19:00:28Z,1337367629,2012,19,0,139.792,139.792,76.7067,-105.5345,1021.19,-999.00,-10.27,yes,no,yes,300025010216150,unknown,unknown,unknown,North
2012-05-18T19:59:31Z,1337371171,2012,20,0,139.833,139.833,76.7067,-105.5346,1021.19,-999.00,-9.9,yes,no,yes,300025010216150,unknown,unknown,unknown,North
2012-05-18T21:00:00Z,1337374800,2012,21,0,139.875,139.875,76.7067,-105.5347,1021.23,-999.00,-9.31,yes,no,yes,300025010216150,unknown,unknown,unknown,North
2012-05-18T22:00:28Z,1337378429,2012,22,0,139.917,139.917,76.7066,-105.5343,1020.84,-999.00,-8.29,yes,no,yes,300025010216150,unknown,unknown,unknown,North
2012-05-18T22:59:31Z,1337381971,2012,23,0,139.958,139.958,76.7067,-105.5344,1020.7,-999.00,-7.48,yes,no,yes,300025010216150,unknown,unknown,unknown,North
2012-05-19T00:00:00Z,1337385600,2012,0,0,140.0,140.0,76.7067,-105.5348,1020.56,-999.00,-7.39,yes,no,yes,300025010216150,unknown,unknown,unknown,North
2012-05-19T01:00:28Z,1337389229,2012,1,0,140.042,140.042,76.7067,-105.5345,1020.35,-999.00,-7.67,yes,no,yes,300025010216150,unknown,unknown,unknown,North
2012-05-19T01:59:31Z,1337392771,2012,2,0,140.083,140.083,76.7068,-105.5345,1020.14,-999.00,-8.73,yes,no,yes,300025010216150,unknown,unknown,unknown,North
2012-05-19T03:00:00Z,1337396400,2012,3,0,140.125,140.125,76.7067,-105.5344,1019.92,-999.00,-9.69,yes,no,yes,300025010216150,unknown,unknown,unknown,North
2012-05-19T04:00:28Z,1337400029,2012,4,0,140.167,140.167,76.7067,-105.5344,1019.64,-999.00,-10.33,yes,no,yes,300025010216150,unknown,unknown,unknown,North
2012-05-19T04:59:31Z,1337403571,2012,5,0,140.208,140.208,76.7066,-105.5347,1019.09,-999.00,-10.94,yes,no,yes,300025010216150,unknown,unknown,unknown,North
2012-05-19T06:00:00Z,1337407200,2012,6,0,140.25,140.25,76.7067,-105.5347,1019.16,-999.00,-11.48,yes,no,yes,300025010216150,unknown,unknown,unknown,North
2012-05-19T07:00:28Z,1337410829,2012,7,0,140.292,140.292,76.7067,-105.5344,1019.23,-999.00,-12.37,yes,no,yes,300025010216150,unknown,unknown,unknown,North
2012-05-19T07:59:31Z,1337414371,2012,8,0,140.333,140.333,76.7067,-105.5339,1019.22,-999.00,-12.84,yes,no,yes,300025010216150,unknown,unknown,unknown,North
2012-05-19T09:00:00Z,1337418000,2012,9,0,140.375,140.375,76.7065,-105.5355,1019.12,-999.00,-13.54,yes,no,yes,300025010216150,unknown,unknown,unknown,North
2012-05-19T10:00:28Z,1337421629,2012,10,0,140.417,140.417,76.7067,-105.5344,1019.08,-999.00,-13.46,yes,no,yes,300025010216150,unknown,unknown,unknown,North
2012-05-19T10:59:31Z,1337425171,2012,11,0,140.458,140.458,76.7067,-105.5345,1019.08,-999.00,-12.65,yes,no,yes,300025010216150,unknown,unknown,unknown,North
2012-05-19T12:00:00Z,1337428800,2012,12,0,140.5,140.5,76.7067,-105.5345,1019.04,-999.00,-12.2,yes,no,yes,300025010216150,unknown,unknown,unknown,North
2012-05-19T13:00:28Z,1337432429,2012,13,0,140.542,140.542,76.7067,-105.5348,1019.08,-999.00,-12.0,yes,no,yes,300025010216150,unknown,unknown,unknown,North
2012-05-19T13:59:31Z,1337435971,2012,14,0,140.583,140.583,76.7067,-105.5344,1018.9,-999.00,-11.05,yes,no,yes,300025010216150,unknown,unknown,unknown,North
2012-05-19T15:00:00Z,1337439600,2012,15,0,140.625,140.625,76.7067,-105.5344,1019.15,-999.00,-10.29,yes,no,yes,300025010216150,unknown,unknown,unknown,North
2012-05-19T16:00:28Z,1337443229,2012,16,0,140.667,140.667,76.7066,-105.5344,1019.15,-999.00,-9.54,yes,no,yes,300025010216150,unknown,unknown,unknown,North
2012-05-19T16:59:31Z,1337446771,2012,17,0,140.708,140.708,76.7066,-105.5344,1019.39,-999.00,-8.74,yes,no,yes,300025010216150,unknown,unknown,unknown,North
2012-05-19T18:00:00Z,1337450400,2012,18,0,140.75,140.75,76.7067,-105.5348,1019.36,-999.00,-7.98,yes,no,yes,300025010216150,unknown,unknown,unknown,North
2012-05-19T19:00:28Z,1337454029,2012,19,0,140.792,140.792,76.7067,-105.5344,1019.5,-999.00,-7.35,yes,no,yes,300025010216150,unknown,unknown,unknown,North
2012-05-19T19:59:31Z,1337457571,2012,20,0,140.833,140.833,76.7067,-105.5344,1019.5,-999.00,-6.9,yes,no,yes,300025010216150,unknown,unknown,unknown,North
2012-05-19T21:00:00Z,1337461200,2012,21,0,140.875,140.875,76.7067,-105.5347,1019.85,-999.00,-6.56,yes,no,yes,300025010216150,unknown,unknown,unknown,North
2012-05-19T22:00:28Z,1337464829,2012,22,0,140.917,140.917,76.7067,-105.5345,1019.88,-999.00,-6.45,yes,no,yes,300025010216150,unknown,unknown,unknown,North
2012-05-19T22:59:31Z,1337468371,2012,23,0,140.958,140.958,76.7067,-105.5344,1020.34,-999.00,-6.28,yes,no,yes,300025010216150,unknown,unknown,unknown,North
2012-05-20T00:00:00Z,1337472000,2012,0,0,141.0,141.0,76.7067,-105.5345,1020.38,-999.00,-6.33,yes,no,yes,300025010216150,unknown,unknown,unknown,North
2012-05-20T01:00:28Z,1337475629,2012,1,0,141.042,141.042,76.7067,-105.5343,1020.55,-999.00,-6.64,yes,no,yes,300025010216150,unknown,unknown,unknown,North
2012-05-20T01:59:31Z,1337479171,2012,2,0,141.083,141.083,76.7067,-105.5344,1021.05,-999.00,-7.01,yes,no,yes,300025010216150,unknown,unknown,unknown,North
2012-05-20T03:00:00Z,1337482800,2012,3,0,141.125,141.125,76.7067,-105.5344,1020.93,-999.00,-7.48,yes,no,yes,300025010216150,unknown,unknown,unknown,North
2012-05-20T04:00:28Z,1337486429,2012,4,0,141.167,141.167,76.7067,-105.5344,1021.26,-999.00,-7.79,yes,no,yes,300025010216150,unknown,unknown,unknown,North
2012-05-20T04:59:31Z,1337489971,2012,5,0,141.208,141.208,76.7065,-105.534,1021.41,-999.00,-7.04,yes,no,yes,300025010216150,unknown,unknown,unknown,North
2012-05-20T06:00:00Z,1337493600,2012,6,0,141.25,141.25,76.7067,-105.5347,1021.26,-999.00,-5.94,yes,no,yes,300025010216150,unknown,unknown,unknown,North
2012-05-20T07:00:28Z,1337497229,2012,7,0,141.292,141.292,76.7066,-105.5345,1021.43,-999.00,-5.81,yes,no,yes,300025010216150,unknown,unknown,unknown,North
2012-05-20T07:59:31Z,1337500771,2012,8,0,141.333,141.333,76.7067,-105.5341,1021.71,-999.00,-5.63,yes,no,yes,300025010216150,unknown,unknown,unknown,North
2012-05-20T09:00:00Z,1337504400,2012,9,0,141.375,141.375,76.7066,-105.5347,1021.69,-999.00,-7.19,yes,no,yes,300025010216150,unknown,unknown,unknown,North
2012-05-20T10:00:28Z,1337508029,2012,10,0,141.417,141.417,76.7067,-105.5344,1021.97,-999.00,-9.1,yes,no,yes,300025010216150,unknown,unknown,unknown,North
2012-05-20T10:59:31Z,1337511571,2012,11,0,141.458,141.458,76.7067,-105.5343,1021.76,-999.00,-9.94,yes,no,yes,300025010216150,unknown,unknown,unknown,North
2012-05-20T12:00:00Z,1337515200,2012,12,0,141.5,141.5,76.7067,-105.5345,1022.11,-999.00,-10.03,yes,no,yes,300025010216150,unknown,unknown,unknown,North
2012-05-20T13:00:28Z,1337518829,2012,13,0,141.542,141.542,76.7068,-105.5344,1022.39,-999.00,-8.95,yes,no,yes,300025010216150,unknown,unknown,unknown,North
2012-05-20T13:59:31Z,1337522371,2012,14,0,141.583,141.583,76.7066,-105.5345,1022.64,-999.00,-8.33,yes,no,yes,300025010216150,unknown,unknown,unknown,North
2012-05-20T15:00:00Z,1337526000,2012,15,0,141.625,141.625,76.7067,-105.5345,1022.58,-999.00,-7.7,yes,no,yes,300025010216150,unknown,unknown,unknown,North
2012-05-20T16:00:28Z,1337529629,2012,16,0,141.667,141.667,76.7067,-105.5346,1022.46,-999.00,-7.02,yes,no,yes,300025010216150,unknown,unknown,unknown,North
2012-05-20T16:59:31Z,1337533171,2012,17,0,141.708,141.708,76.7068,-105.5343,1022.39,-999.00,-6.21,yes,no,yes,300025010216150,unknown,unknown,unknown,North
2012-05-20T18:00:00Z,1337536800,2012,18,0,141.75,141.75,76.7066,-105.534,1022.6,-999.00,-5.77,yes,no,yes,300025010216150,unknown,unknown,unknown,North
2012-05-20T19:00:28Z,1337540429,2012,19,0,141.792,141.792,76.7066,-105.5344,1022.64,-999.00,-5.07,yes,no,yes,300025010216150,unknown,unknown,unknown,North
2012-05-20T19:59:31Z,1337543971,2012,20,0,141.833,141.833,76.7067,-105.5345,1022.78,-999.00,-4.48,yes,no,yes,300025010216150,unknown,unknown,unknown,North
2012-05-20T21:00:00Z,1337547600,2012,21,0,141.875,141.875,76.7067,-105.5346,1022.81,-999.00,-4.4,yes,no,yes,300025010216150,unknown,unknown,unknown,North
2012-05-20T22:00:28Z,1337551229,2012,22,0,141.917,141.917,76.7067,-105.5345,1022.95,-999.00,-4.21,yes,no,yes,300025010216150,unknown,unknown,unknown,North
2012-05-20T22:59:31Z,1337554771,2012,23,0,141.958,141.958,76.7067,-105.5344,1022.88,-999.00,-3.96,yes,no,yes,300025010216150,unknown,unknown,unknown,North
2012-05-21T00:00:00Z,1337558400,2012,0,0,142.0,142.0,76.7066,-105.5338,1022.67,-999.00,-4.16,yes,no,yes,300025010216150,unknown,unknown,unknown,North
2012-05-21T01:00:28Z,1337562029,2012,1,0,142.042,142.042,76.7068,-105.5343,1022.67,-999.00,-5.37,yes,no,yes,300025010216150,unknown,unknown,unknown,North
2012-05-21T01:59:31Z,1337565571,2012,2,0,142.083,142.083,76.7067,-105.5344,1022.25,-999.00,-6.46,yes,no,yes,300025010216150,unknown,unknown,unknown,North
2012-05-21T03:00:00Z,1337569200,2012,3,0,142.125,142.125,76.7067,-105.5345,1022.18,-999.00,-6.99,yes,no,yes,300025010216150,unknown,unknown,unknown,North
2012-05-21T04:00:28Z,1337572829,2012,4,0,142.167,142.167,76.7067,-105.5344,1021.82,-999.00,-8.51,yes,no,yes,300025010216150,unknown,unknown,unknown,North
2012-05-21T04:59:31Z,1337576371,2012,5,0,142.208,142.208,76.7066,-105.5347,1021.79,-999.00,-9.8,yes,no,yes,300025010216150,unknown,unknown,unknown,North
2012-05-21T06:00:00Z,1337580000,2012,6,0,142.25,142.25,76.7067,-105.5346,1021.83,-999.00,-9.16,yes,no,yes,300025010216150,unknown,unknown,unknown,North
2012-05-21T07:00:28Z,1337583629,2012,7,0,142.292,142.292,76.7067,-105.5345,1021.62,-999.00,-9.08,yes,no,yes,300025010216150,unknown,unknown,unknown,North
2012-05-21T07:59:31Z,1337587171,2012,8,0,142.333,142.333,76.7067,-105.5345,1021.41,-999.00,-9.05,yes,no,yes,300025010216150,unknown,unknown,unknown,North
2012-05-21T09:00:00Z,1337590800,2012,9,0,142.375,142.375,76.7067,-105.535,1021.05,-999.00,-8.68,yes,no,yes,300025010216150,unknown,unknown,unknown,North